TimeAKDT,TemperatureF,Dew PointF,Humidity,Sea Level PressureIn,VisibilityMPH,Wind Direction,Wind SpeedMPH,Gust SpeedMPH,PrecipitationIn,Events,Conditions,WindDirDegrees,DateUTC
12:55 AM,-9999,-9999,N/A,29.94,10.0,East,6.9,-,N/A,,Overcast,100,2013-06-25 08:55:00
1:18 AM,35.6,35.6,100,29.94,10.0,ESE,4.6,-,N/A,,Overcast,110,2013-06-25 09:18:00
1:55 AM,36.0,36.3,100,29.94,10.0,SE,3.5,-,N/A,,Mostly Cloudy,140,2013-06-25 09:55:00
2:55 AM,37.4,36.7,97,29.93,10.0,SE,5.8,-,N/A,,Mostly Cloudy,130,2013-06-25 10:55:00
3:55 AM,36.9,36.1,97,29.92,10.0,ESE,4.6,-,N/A,,Overcast,120,2013-06-25 11:55:00
4:38 AM,35.6,35.6,100,29.92,10.0,ESE,5.8,-,N/A,,Overcast,110,2013-06-25 12:38:00
4:55 AM,36.3,35.8,98,29.92,10.0,ESE,5.8,-,N/A,,Overcast,120,2013-06-25 12:55:00
5:55 AM,35.6,35.4,99,29.91,10.0,East,6.9,-,N/A,,Overcast,100,2013-06-25 13:55:00
6:55 AM,36.3,36.0,99,29.91,10.0,East,6.9,-,N/A,,Overcast,90,2013-06-25 14:55:00
7:55 AM,35.6,35.6,100,29.91,2.0,East,6.9,-,N/A,,Overcast,90,2013-06-25 15:55:00
7:58 AM,35.6,35.6,100,29.91,1.5,East,8.1,-,N/A,,Overcast,80,2013-06-25 15:58:00
8:09 AM,35.6,35.6,100,29.91,0.8,East,5.8,-,N/A,,Overcast,90,2013-06-25 16:09:00
8:55 AM,35.6,35.6,100,29.90,0.2,East,10.4,-,N/A,Fog,Fog,100,2013-06-25 16:55:00
9:03 AM,-9999,-9999,N/A,29.90,0.2,East,8.1,-,N/A,Fog,Light Drizzle,90,2013-06-25 17:03:00
9:55 AM,35.4,36.0,100,29.90,0.2,East,6.9,-,N/A,Fog-Rain,Light Rain,100,2013-06-25 17:55:00
10:55 AM,34.9,35.6,100,29.89,0.2,East,8.1,-,N/A,Fog-Rain,Light Rain,100,2013-06-25 18:55:00
11:03 AM,35.6,35.6,100,29.89,0.5,East,9.2,-,N/A,Fog-Rain,Light Rain,100,2013-06-25 19:03:00
11:55 AM,35.6,36.3,100,29.88,0.5,East,10.4,-,N/A,Fog,Light Drizzle,100,2013-06-25 19:55:00
12:23 PM,35.6,35.6,100,29.88,0.2,East,8.1,-,N/A,Fog-Rain,Light Rain,90,2013-06-25 20:23:00
12:43 PM,35.6,35.6,100,29.88,0.5,ENE,4.6,-,N/A,Fog,Fog,70,2013-06-25 20:43:00
12:55 PM,35.2,35.6,100,29.87,0.8,East,6.9,-,N/A,,Overcast,80,2013-06-25 20:55:00
1:03 PM,35.6,35.6,100,29.87,1.2,East,5.8,-,N/A,,Overcast,80,2013-06-25 21:03:00
1:23 PM,35.6,35.6,100,29.87,0.8,East,5.8,-,N/A,,Mostly Cloudy,80,2013-06-25 21:23:00
1:44 PM,35.6,35.6,100,29.88,0.8,NE,3.5,-,N/A,,Mostly Cloudy,50,2013-06-25 21:44:00
1:55 PM,-9999,-9999,N/A,29.88,1.8,North,2.3,-,N/A,,Mostly Cloudy,10,2013-06-25 21:55:00
2:04 PM,35.6,35.6,100,29.88,10.0,NE,4.6,-,N/A,,Overcast,50,2013-06-25 22:04:00
2:44 PM,37.4,35.6,93,29.87,10.0,ENE,5.8,-,N/A,,Partly Cloudy,60,2013-06-25 22:44:00
2:55 PM,36.7,36.1,98,29.87,10.0,ENE,4.6,-,N/A,,Clear,60,2013-06-25 22:55:00
3:55 PM,37.4,36.9,98,29.87,10.0,NNE,4.6,-,N/A,,Clear,20,2013-06-25 23:55:00
4:55 PM,37.4,36.0,95,29.87,10.0,NNE,4.6,-,N/A,,Clear,30,2013-06-26 00:55:00
5:55 PM,37.9,36.1,93,29.86,10.0,NNE,4.6,-,N/A,,Clear,20,2013-06-26 01:55:00
6:55 PM,37.2,36.1,96,29.86,10.0,ENE,5.8,-,N/A,,Clear,60,2013-06-26 02:55:00
7:55 PM,37.0,36.0,96,29.85,10.0,NE,4.6,-,N/A,,Clear,50,2013-06-26 03:55:00
8:55 PM,37.6,36.0,94,29.84,10.0,NNE,3.5,-,N/A,,Clear,30,2013-06-26 04:55:00
9:55 PM,36.5,35.4,96,29.85,10.0,NW,6.9,-,N/A,,Clear,320,2013-06-26 05:55:00
10:55 PM,35.8,34.9,97,29.84,10.0,NW,5.8,-,N/A,,Clear,320,2013-06-26 06:55:00
11:55 PM,36.3,35.2,96,29.85,10.0,NNW,3.5,-,N/A,,Clear,330,2013-06-26 07:55:00